Location: Bear Trap Landing
(45.2437°N, 67.7928°W)
Time: 19:02:49
(UTC+00:00)

ISS - Pass Details

Date: 08 March 2021
Orbit: 418 x 421 km, 51.6° (Epoch: 21 April)

Event Time Altitude Azimuth Distance (km) Brightness Sun altitude
Exits shadow 09:20:11 30° 323° (NW) 775 -2.7 -17.7°
Maximum altitude 09:21:29 50° 22° (NNE) 542 -3.1 -17.4°
Drops below altitude 10° 09:24:46 10° 100° (E) 1,496 0.1 -16.9°
Sets 09:26:54 0° 105° (ESE) 2,358 1.3 -16.5°
